COSMOS 970 DEB, 64967

Orbit data source: Space-Track

COSMOS 970 DEB, 64967 is space debris in LEO originally from a launch on Wed, 21 Dec 1977 UTC launched from the Tyuratam Missile And Space Complex (TTMTR). Debris objects in space refer to the collection of defunct objects orbiting the Earth. Examples of debris include non-operational satellites, rocket bodies, and fragments generated from explosions, collisions, or faulty payload assembly.

Loading next visibility...
Identifier
64967, 1977-121CC
Orbit
LEO
Country
Flag of CISCIS
Related business
Manufacturer
Unknown
Mission
Spacecraft
Bus & Motor
Unknown
Mass
Unknown
Launch date (UTC)
1977-12-21 (48 years ago)
Launch vehicle
Unknown
Launch site
Tyuratam Missile And Space Complex (TTMTR)
Object type
Payload
Rocket body
Debris
Shape & HBR
Unknown shape, 0.1 m
Radar Cross Section
Small (<0.1 m²)

Expand to show TLE details & history
Last TLE update: 18 hours ago

TLE from 18 hours ago
0 COSMOS 970 DEB
1 64967U 77121CC  26171.09772056  .00000154  00000-0  28728-3 0  9993
2 64967  65.7395  44.9551 0110249 232.7690 203.7035 13.62610764625237
Epoch: 2026-06-20T02:20Z
TLE epoch observation values (Epoch: 2026-06-20T02:20:43.056Z)
Latitude
62.30228°
Longitude
160.1227°
Altitude
1,110.883 km
Speed
7.266 km/s
True Right ascension
06h 54m 28s
True Declination
62° 10' 02"
Sunlit
Object was in daylight at epoch
Visualization orbit readout
Latitude
Unknown
Longitude
Unknown
Altitude
Unknown
Speed
Unknown
Apparent Right ascension
Unknown
Apparent Declination
Unknown
Sunlit
N/A
Visualization observer readout
Local Sidereal Time
07:13:43
Azimuth
Unknown
Elevation
Unknown
Doppler factor
Unknown
Orbital elements
Apogee altitude
1,106.372 km
Perigee altitude
943.14 km
Semi-major axis
7,402.893 km
Eccentricity
0.01102
Inclination
65.7395°
RAAN
44.9551°
Arg. of periapsis
232.769°
True anomaly
203.20196°
Mean anomaly
203.7035°
Eccentric anomaly
203.4521°
Mean motion
3.40754 °/min
Orbital period
105.65 mins
BSTAR
0.00028728
Loading maneuver chart data...
Computing Atmospheric mass density...
Loading historical data...
Loading historical data...
Loading historical data...
Loading historical data...
Loading historical data...
Loading historical data...
Loading historical data...

Documentation

Showing up to 5 results
|